RADCAL 1 22698U 93041A 10068.82958492 -.00000130 00000-0 -61254-4 0 5574 2 22698 89.5453 13.1908 0089543 168.6146 191.7108 14.22831780867044 STRV 1A 1 23125U 94034B 10067.63514343 .00006351 00000-0 82467-3 0 5706 2 23125 7.3427 303.4932 6844943 215.1173 69.9091 2.86467344147000 STRV 1B 1 23126U 94034C 10068.50917965 .00001043 00000-0 24261-3 0 5892 2 23126 7.3625 246.9106 6783853 328.4365 4.5222 2.92909439149420 REX 2 1 23814U 96014A 10068.73359740 .00000034 00000-0 98468-5 0 9224 2 23814 90.1529 277.1027 0022655 158.1919 202.0236 14.23886010727336 COSMOS 2346 1 24953U 97052A 10068.65464549 .00000040 00000-0 23827-4 0 7396 2 24953 82.9221 117.0390 0041222 104.2267 256.3474 13.79439264627221 ARGOS 1 25634U 99008A 10068.74144077 .00000133 00000-0 85799-4 0 9545 2 25634 98.9753 114.7237 0009488 271.3640 88.6455 14.18922554571707 HELIOS 1B 1 25977U 99064A 10068.65986003 .00000122 00000-0 24705-4 0 9380 2 25977 98.3453 83.8071 0001392 150.4614 209.6674 14.77780178551136 MTI 1 26102U 00014A 10068.83066041 .00001150 00000-0 70317-4 0 5051 2 26102 97.2476 223.9878 0018404 271.3074 221.8814 15.12005235549534 STRV 1C 1 26610U 00072C 10067.96295952 .00000340 00000-0 10000-3 0 391 2 26610 5.9551 195.1822 7343785 241.1786 28.2818 2.03458152 69213 OFEQ 5 1 27434U 02025A 10068.96340532 .00001937 00000-0 97670-4 0 1047 2 27434 143.4660 83.2685 0024419 74.1246 310.6023 15.06070233433374 SAR-LUPE 1 1 29658U 06060A 10068.97199208 .00002029 00000-0 79884-4 0 5957 2 29658 98.1461 197.3068 0020056 61.0425 60.3908 15.26825294179474 MIDSTAR-1 1 30773U 07006B 10068.94402764 -.00000304 00000-0 00000-0 0 8531 2 30773 46.0360 21.4520 0008371 188.7519 171.3334 15.24015559167275 CFESAT 1 30777U 07006F 10068.90963440 .00000715 00000-0 55149-4 0 7862 2 30777 35.4335 292.0405 0003972 2.5080 357.5655 15.02998386165051 NFIRE 1 31140U 07014A 10068.86408693 .00011306 00000-0 12488-3 0 943 2 31140 48.2276 212.6849 0048344 254.8397 104.7198 15.62043133163719 OFEQ 7 1 31601U 07025A 10068.78663194 .00003444 00000-0 12495-3 0 994 2 31601 141.7494 254.8734 0068496 120.7119 81.9052 15.20489457152851 SAR-LUPE 2 1 31797U 07030A 10068.96824755 .00001344 00000-0 54231-4 0 13 2 31797 98.1433 267.7729 0013666 15.0954 122.3774 15.26784940149694 SAR-LUPE 3 1 32283U 07053A 10068.96038314 .00001711 00000-0 68079-4 0 6342 2 32283 98.0920 327.5346 0010939 114.9290 301.8685 15.26830589131201 SAR-LUPE 4 1 32750U 08014A 10068.95924325 .00002121 00000-0 83346-4 0 1800 2 32750 98.1430 198.2302 0019781 227.5576 249.7283 15.26844717108659 SAR-LUPE 5 1 33244U 08036A 10068.97434028 .00001780 00000-0 70489-4 0 8172 2 33244 98.1152 326.0629 0019337 276.1784 282.8503 15.26831722 90891 SPIRALE A 1 33751U 09008C 10066.64083592 -.00000002 00000-0 10000-3 0 2143 2 33751 1.4586 128.3085 7154722 135.4571 310.7669 2.25838680 8761 SPIRALE B 1 33752U 09008D 10065.33638127 .00000080 00000-0 17223-2 0 2158 2 33752 1.4513 129.2858 7149988 133.5766 313.8881 2.25834306 8742 TACSAT 3 1 35001U 09028A 10068.52386573 .00005770 00000-0 14273-3 0 2488 2 35001 40.4557 92.3238 0023096 336.1526 23.8218 15.40614737 45257